Vorticity
4 4 4 3 2 1 2 3 4 1 -0 2 -2 5 5 2 15 1 0 31 9 -9
5 2 9 2 -1 24 -7 6 12 6 1 2 3 6 7 9 5 6 11 11 -25 12
5 4 4 4 2 2 8 7 -5 3 0 3 4 5 11 2 9 8 5 11 12 9
5 5 8 6 11 8 4 4 -4 6 3 2 10 5 10 10 7 6 9 9 8 5
3 -3 13 2 57 -0 1 -4 15 2 12 7 5 11 8 7 7 8 9 6 2 4
-7 -3 28 1 5 5 7 6 8 10 7 7 9 8 7 7 8 7 5 6 5 5
6 9 4 9 3 11 7 8 8 4 8 7 8 7 9 8 6 4 4 4 4 4
5 5 5 5 9 11 9 4 7 9 7 8 8 9 7 6 4 4 3 3 2 7
5 7 10 11 9 4 1 2 10 6 10 8 8 6 7 4 4 4 3 3 10 9
10 10 7 6 9 6 10 13 8 9 8 7 6 7 4 3 2 4 4 10 6 10
10 10 10 11 11 12 10 7 9 8 7 6 6 5 3 2 4 4 10 7 10 7
11 11 11 11 9 8 7 8 9 7 5 4 5 3 4 4 5 9 6 12 6 7
10 9 9 9 8 9 7 8 6 5 5 7 4 4 4 7 9 6 10 6 7 9
9 9 9 11 7 5 7 7 5 5 5 5 4 3 5 7 5 8 6 8 8 9
Height
5737 5736 5737 5739 5740 5740 5739 5739 5739 5739 5739 5738 5737 5736 5734 5733 5729 5725 5721 5715 5713 5710
5733 5734 5733 5730 5733 5733 5732 5731 5732 5730 5730 5730 5729 5727 5725 5722 5718 5714 5711 5707 5704 5700
5729 5726 5726 5726 5725 5724 5724 5724 5724 5723 5722 5720 5720 5718 5716 5712 5709 5704 5701 5697 5694 5689
5722 5722 5720 5717 5715 5713 5710 5712 5713 5714 5715 5713 5711 5708 5705 5701 5697 5694 5690 5687 5684 5679
5714 5715 5711 5712 5690 5694 5709 5711 5710 5706 5705 5703 5700 5697 5693 5690 5686 5683 5680 5677 5672 5666
5707 5700 5707 5706 5705 5701 5700 5699 5698 5696 5694 5692 5689 5686 5682 5680 5677 5673 5668 5663 5658 5652
5700 5699 5697 5694 5694 5693 5692 5693 5691 5689 5686 5682 5680 5677 5674 5670 5666 5661 5655 5650 5644 5638
5697 5694 5692 5691 5688 5686 5685 5684 5682 5678 5675 5672 5670 5667 5663 5659 5653 5648 5643 5637 5631 5624
5689 5687 5685 5683 5679 5676 5675 5673 5671 5668 5666 5663 5659 5656 5652 5646 5641 5636 5630 5623 5616 5609
5679 5676 5674 5671 5670 5668 5666 5664 5662 5659 5656 5652 5649 5645 5639 5634 5628 5622 5616 5609 5601 5594
5671 5668 5666 5663 5661 5659 5657 5654 5651 5648 5645 5642 5637 5632 5627 5621 5615 5608 5601 5594 5586 5578
5659 5657 5654 5652 5650 5647 5645 5642 5640 5637 5634 5630 5624 5619 5613 5608 5602 5594 5586 5578 5569 5562
5648 5645 5643 5641 5638 5636 5633 5631 5628 5625 5621 5617 5612 5605 5599 5593 5586 5579 5572 5564 5555 5546
5638 5636 5633 5630 5628 5626 5623 5619 5616 5613 5609 5604 5598 5590 5583 5576 5569 5564 5556 5548 5539 5528